| time (UTC) | temp F | wind direction | speed MPH | gust MPH | rain 1hr in | rain 24hr in | rain mn in | humidity % | barometer mb |
| 20260902000053 | 73 | 82 | 0.0 | 0.0 | 0.00 | 0.90 | 0.77 | 91 | 962.6 |
| 20260901234606 | 73 | 82 | 0.0 | 0.0 | 0.00 | 0.90 | 0.77 | 91 | 962.7 |
| 20260901233043 | 73 | 82 | 0.0 | 0.0 | 0.00 | 0.90 | 0.77 | 91 | 962.6 |
| 20260901231549 | 73 | 82 | 0.0 | 2.0 | 0.00 | 0.90 | 0.77 | 91 | 962.3 |
| 20260901230112 | 74 | 82 | 0.0 | 1.0 | 0.00 | 0.90 | 0.77 | 91 | 962.4 |
| 20260901224541 | 75 | 82 | 0.0 | 2.0 | 0.00 | 0.91 | 0.77 | 91 | 962.5 |
| 20260901223104 | 75 | 82 | 0.0 | 2.0 | 0.00 | 0.91 | 0.77 | 91 | 962.2 |
| 20260901221540 | 75 | 82 | 0.0 | 3.0 | 0.00 | 0.91 | 0.77 | 91 | 962.3 |
| 20260901220038 | 75 | 117 | 0.0 | 1.0 | 0.00 | 0.91 | 0.77 | 92 | 962.3 |
| 20260901214537 | 75 | 117 | 0.0 | 1.0 | 0.00 | 0.93 | 0.77 | 93 | 962.3 |
| 20260901213044 | 74 | 117 | 0.0 | 2.0 | 0.00 | 0.93 | 0.77 | 93 | 962.1 |
| 20260901211548 | 75 | 117 | 0.0 | 2.0 | 0.00 | 0.93 | 0.77 | 93 | 962.0 |
| 20260901210037 | 75 | 168 | 0.0 | 0.0 | 0.00 | 0.93 | 0.77 | 94 | 961.9 |
| 20260901204543 | 75 | 168 | 0.0 | 0.0 | 0.00 | 0.96 | 0.77 | 94 | 962.2 |
| 20260901203032 | 74 | 168 | 0.0 | 0.0 | 0.00 | 0.96 | 0.77 | 93 | 962.3 |
| 20260901201531 | 74 | 168 | 0.0 | 0.0 | 0.00 | 0.96 | 0.77 | 94 | 962.3 |
| 20260901200048 | 74 | 168 | 0.0 | 0.0 | 0.00 | 0.96 | 0.77 | 94 | 962.4 |
| 20260901194536 | 74 | 168 | 0.0 | 0.0 | 0.00 | 1.00 | 0.77 | 94 | 962.4 |
| 20260901193030 | 74 | 168 | 0.0 | 0.0 | 0.00 | 1.00 | 0.77 | 94 | 962.4 |
| 20260901191530 | 73 | 167 | 0.0 | 0.0 | 0.00 | 1.00 | 0.77 | 95 | 962.5 |
| 20260901190029 | 73 | 168 | 0.0 | 0.0 | 0.00 | 1.00 | 0.77 | 95 | 962.5 |
| 20260901184523 | 72 | 168 | 0.0 | 0.0 | 0.00 | 1.00 | 0.77 | 95 | 962.4 |
| 20260901183036 | 72 | 168 | 0.0 | 0.0 | 0.00 | 1.00 | 0.77 | 96 | 962.3 |
| 20260901181521 | 72 | 168 | 0.0 | 0.0 | 0.00 | 1.00 | 0.77 | 96 | 962.1 |
| 20260901180020 | 72 | 168 | 0.0 | 3.0 | 0.00 | 1.00 | 0.77 | 97 | 962.1 |
| 20260901174517 | 71 | 166 | 1.0 | 4.0 | 0.00 | 1.07 | 0.77 | 97 | 962.0 |
| 20260901173016 | 71 | 192 | 0.0 | 4.0 | 0.00 | 1.07 | 0.77 | 97 | 962.1 |
| 20260901171514 | 71 | 166 | 0.0 | 4.0 | 0.00 | 1.07 | 0.77 | 97 | 962.0 |
| 20260901170012 | 71 | 169 | 0.0 | 4.0 | 0.00 | 1.22 | 0.77 | 98 | 962.0 |
| 20260901164510 | 70 | 134 | 2.0 | 4.0 | 0.00 | 1.22 | 0.77 | 98 | 962.1 |
| 20260901163110 | 70 | 109 | 2.0 | 7.0 | 0.00 | 1.22 | 0.77 | 98 | 962.1 |
| 20260901161507 | 69 | 86 | 4.0 | 8.0 | 0.00 | 1.22 | 0.77 | 98 | 962.1 |
| 20260901160005 | 69 | 94 | 3.0 | 6.0 | 0.00 | 1.22 | 0.77 | 98 | 962.3 |
| 20260901154504 | 69 | 117 | 2.0 | 6.0 | 0.01 | 1.22 | 0.77 | 98 | 962.4 |
| 20260901153002 | 69 | 124 | 1.0 | 3.0 | 0.02 | 1.22 | 0.77 | 98 | 962.4 |
| 20260901151558 | 68 | 132 | 1.0 | 4.0 | 0.02 | 1.22 | 0.77 | 98 | 962.6 |
| 20260901150054 | 68 | 119 | 2.0 | 6.0 | 0.08 | 1.22 | 0.77 | 98 | 962.5 |
| 20260901144551 | 68 | 130 | 3.0 | 4.0 | 0.08 | 1.21 | 0.76 | 98 | 962.5 |
| 20260901143051 | 68 | 161 | 2.0 | 5.0 | 0.23 | 1.20 | 0.75 | 98 | 962.4 |
| 20260901141557 | 67 | 137 | 2.0 | 7.0 | 0.31 | 1.20 | 0.75 | 98 | 962.5 |
| 20260901140052 | 67 | 168 | 2.0 | 5.0 | 0.26 | 1.13 | 0.69 | 98 | 962.4 |
| 20260901134547 | 67 | 120 | 1.0 | 6.0 | 0.27 | 1.12 | 0.68 | 98 | 962.1 |
| 20260901133047 | 67 | 134 | 1.0 | 6.0 | 0.16 | 0.96 | 0.51 | 98 | 962.8 |
| 20260901131545 | 68 | 159 | 2.0 | 7.0 | 0.20 | 0.88 | 0.43 | 98 | 963.0 |
| 20260901130044 | 68 | 159 | 1.0 | 5.0 | 0.34 | 0.88 | 0.43 | 98 | 962.6 |
| 20260901124550 | 67 | 192 | 1.0 | 2.0 | 0.35 | 0.86 | 0.41 | 98 | 962.9 |
| 20260901123040 | 67 | 250 | 2.0 | 4.0 | 0.31 | 0.80 | 0.35 | 98 | 963.5 |
| 20260901121546 | 67 | 182 | 1.0 | 3.0 | 0.19 | 0.67 | 0.22 | 97 | 963.3 |
| 20260901120038 | 67 | 132 | 0.0 | 3.0 | 0.07 | 0.54 | 0.09 | 98 | 963.0 |
| 20260901114538 | 67 | 103 | 0.0 | 0.0 | 0.04 | 0.51 | 0.06 | 98 | 962.9 |
| 20260901113041 | 67 | 103 | 1.0 | 2.0 | 0.02 | 0.49 | 0.04 | 98 | 962.9 |
| 20260901111542 | 67 | 109 | 1.0 | 4.0 | 0.01 | 0.48 | 0.03 | 98 | 962.5 |
| 20260901110039 | 67 | 134 | 2.0 | 6.0 | 0.00 | 0.47 | 0.02 | 98 | 962.5 |
| 20260901104534 | 67 | 82 | 2.0 | 4.0 | 0.00 | 0.47 | 0.02 | 98 | 962.4 |
| 20260901103033 | 66 | 119 | 3.0 | 7.0 | 0.00 | 0.47 | 0.02 | 98 | 962.2 |
| 20260901101530 | 66 | 102 | 2.0 | 3.0 | 0.00 | 0.47 | 0.02 | 98 | 962.3 |
| 20260901100029 | 66 | 103 | 2.0 | 4.0 | 0.00 | 0.47 | 0.02 | 98 | 962.2 |
| 20260901094529 | 66 | 103 | 2.0 | 7.0 | 0.00 | 0.47 | 0.02 | 98 | 962.5 |
| 20260901093027 | 66 | 119 | 2.0 | 3.0 | 0.01 | 0.47 | 0.02 | 98 | 962.7 |
| 20260901091535 | 67 | 119 | 2.0 | 3.0 | 0.01 | 0.47 | 0.02 | 98 | 962.6 |
| 20260901090026 | 66 | 134 | 2.0 | 4.0 | 0.01 | 0.47 | 0.02 | 98 | 962.8 |
| 20260901084522 | 66 | 114 | 2.0 | 4.0 | 0.02 | 0.47 | 0.02 | 98 | 963.1 |
| 20260901083021 | 66 | 127 | 2.0 | 4.0 | 0.01 | 0.46 | 0.01 | 98 | 963.2 |
| 20260901081520 | 66 | 111 | 2.0 | 4.0 | 0.01 | 0.46 | 0.01 | 97 | 963.2 |
| 20260901080021 | 66 | 119 | 0.0 | 3.0 | 0.01 | 0.46 | 0.01 | 97 | 963.4 |
| 20260901074518 | 66 | 111 | 3.0 | 7.0 | 0.00 | 0.45 | 0.00 | 97 | 963.2 |
| 20260901073023 | 66 | 93 | 2.0 | 4.0 | 0.00 | 0.45 | 0.00 | 97 | 963.3 |
| 20260901071517 | 66 | 123 | 0.0 | 2.0 | 0.00 | 0.45 | 0.00 | 97 | 963.6 |
| 20260901070025 | 66 | 123 | 1.0 | 3.0 | 0.00 | 0.45 | 0.00 | 97 | 963.3 |
| 20260901064515 | 66 | 123 | 1.0 | 3.0 | 0.00 | 0.45 | 0.00 | 97 | 963.4 |
| 20260901063013 | 66 | 123 | 2.0 | 4.0 | 0.00 | 0.45 | 0.00 | 97 | 963.6 |
| 20260901061512 | 66 | 124 | 2.0 | 3.0 | 0.00 | 0.45 | 0.00 | 97 | 963.6 |
| 20260901060010 | 66 | 124 | 1.0 | 3.0 | 0.00 | 0.45 | 0.00 | 98 | 963.7 |
| 20260901054508 | 66 | 124 | 1.0 | 3.0 | 0.00 | 0.45 | 0.00 | 97 | 964.0 |
| 20260901053011 | 66 | 124 | 1.0 | 2.0 | 0.00 | 0.45 | 0.00 | 97 | 964.1 |
| 20260901051506 | 66 | 124 | 0.0 | 2.0 | 0.00 | 0.45 | 0.00 | 97 | 964.2 |
| 20260901050006 | 66 | 124 | 1.0 | 2.0 | 0.00 | 0.45 | 0.00 | 97 | 964.2 |
| 20260901044506 | 66 | 124 | 1.0 | 3.0 | 0.00 | 0.45 | 0.00 | 97 | 964.2 |
| 20260901043006 | 66 | 124 | 1.0 | 3.0 | 0.00 | 0.45 | 0.00 | 97 | 964.3 |
| 20260901041503 | 66 | 140 | 1.0 | 3.0 | 0.00 | 0.45 | 0.00 | 97 | 964.3 |
| 20260901040104 | 66 | 155 | 1.0 | 3.0 | 0.00 | 0.45 | 0.00 | 97 | 964.1 |
| 20260901034605 | 66 | 162 | 1.0 | 2.0 | 0.00 | 0.45 | 0.45 | 97 | 964.2 |
| 20260901033106 | 66 | 162 | 0.0 | 1.0 | 0.00 | 0.45 | 0.45 | 97 | 964.2 |
| 20260901031557 | 66 | 162 | 0.0 | 1.0 | 0.00 | 0.45 | 0.45 | 97 | 964.4 |
| 20260901030055 | 66 | 162 | 0.0 | 1.0 | 0.00 | 0.45 | 0.45 | 97 | 964.3 |
| 20260901024600 | 65 | 162 | 0.0 | 2.0 | 0.00 | 0.45 | 0.45 | 97 | 964.4 |
| 20260901023054 | 65 | 162 | 0.0 | 0.0 | 0.00 | 0.45 | 0.45 | 97 | 964.5 |
| 20260901021558 | 65 | 162 | 0.0 | 3.0 | 0.07 | 0.45 | 0.45 | 97 | 964.6 |
| 20260901020055 | 65 | 134 | 2.0 | 4.0 | 0.10 | 0.45 | 0.45 | 97 | 964.5 |
| 20260901014552 | 65 | 123 | 2.0 | 6.0 | 0.11 | 0.45 | 0.45 | 97 | 964.7 |
| 20260901013052 | 65 | 121 | 4.0 | 7.0 | 0.12 | 0.45 | 0.45 | 97 | 964.7 |
| 20260901011558 | 65 | 131 | 1.0 | 2.0 | 0.06 | 0.38 | 0.38 | 97 | 964.9 |
| 20260901010051 | 65 | 131 | 1.0 | 6.0 | 0.03 | 0.35 | 0.35 | 97 | 964.6 |
| 20260901004552 | 65 | 98 | 3.0 | 6.0 | 0.02 | 0.34 | 0.34 | 97 | 964.6 |
| 20260901003056 | 65 | 106 | 2.0 | 6.0 | 0.01 | 0.33 | 0.33 | 97 | 964.4 |
| 20260901001553 | 65 | 121 | 1.0 | 7.0 | 0.00 | 0.32 | 0.32 | 97 | 964.3 |